STARLINK-5656, 55451

Orbit data source: Space-Track

STARLINK-5656, 55451 is a payload satellite owned by SpaceX/Seattle (US) in LEO that was launched on Thu, 02 Feb 2023 UTC via an FALCON 9 launch vehicle from the Air Force Eastern Test Range (AFETR). Payload-class satellites include a variety of spacecraft equipped with specific instruments for various scientific and technological missions. These include communications satellites like Starlink; space stations such as the ISS; scientific satellites like the Hubble; Earth observation satellites from companies like Planet Labs, Umbra, and HawkEye 360; GPS; miniature CubeSats for education and research; and military/defense satellites.

Loading next visibility...
Identifier
55451, 2023-015C
Orbit
LEO
Country
Flag of USUS
Related business
Manufacturer
SpaceX/Seattle
Mission
Operational Commercial Communications
Bus & Motor
STARLINK, Unknown motor
Mass
305 kg wet, ~290 kg dry
Launch date (UTC)
2023-02-02 (3 years ago)
Launch vehicle
FALCON 9
Launch site
Air Force Eastern Test Range (AFETR)
Object type
Payload
Rocket body
Debris
Shape & HBR
Box + 1 Pan, 10.1 m
Radar Cross Section
13.562 m², Large (>1 m²)

Expand to show TLE details & history
Last TLE update: 8 hours ago

TLE from 8 hours ago
0 STARLINK-5656
1 55451U 23015C   26132.80631988  .00001578  00000-0  66875-4 0  9995
2 55451  43.0058 326.9884 0001787 262.6277  97.4371 15.27575273180528
Epoch: 2026-05-12T19:21Z
TLE epoch observation values (Epoch: 2026-05-12T19:21:06.037Z)
Latitude
-0.00007°
Longitude
166.13776°
Altitude
482.998 km
Speed
7.626 km/s
True Right ascension
21h 47m 57s
True Declination
0° 00' 00"
Sunlit
Object was in daylight at epoch
Visualization orbit readout
Latitude
Unknown
Longitude
Unknown
Altitude
Unknown
Speed
Unknown
Apparent Right ascension
Unknown
Apparent Declination
Unknown
Sunlit
N/A
Visualization observer readout
Local Sidereal Time
11:17:51
Azimuth
Unknown
Elevation
Unknown
Doppler factor
Unknown
Orbital elements
Apogee altitude
486.234 km
Perigee altitude
483.781 km
Semi-major axis
6,863.144 km
Eccentricity
0.00018
Inclination
43.0058°
RAAN
326.9884°
Arg. of periapsis
262.6277°
True anomaly
97.4574°
Mean anomaly
97.4371°
Eccentric anomaly
97.44725°
Mean motion
3.81732 °/min
Orbital period
94.31 mins
BSTAR
0.000066875
Loading maneuver chart data...
Computing Atmospheric mass density...
Loading historical data...
Loading historical data...
Loading historical data...
Loading historical data...
Loading historical data...
Loading historical data...
Loading historical data...

Documentation

Showing up to 5 results
|